GSAT0207 (GALILEO 15) (41859 NORAD) Tracking and Keplerian Element Data

This shows tracking and keplerian element data for the satellite.

Feedback or suggestion? Click here.




ElementValue
Catalog41859
NameGSAT0207 (GALILEO 15)
Epoch Orbit2985
Epoch Day260.978492
Epoch Year2021
RAAN149.1438
Inclination54.7378
Eccentricity0.0003187
Argument of Perigee311.2464
Mean Anonmoly48.7958
Mean Motion1.70472724
Decay Rate-1.3E-07
L11 41859U 16069A 21260.97849200 -.00000013 00000-0 00000-0 0 9994
L22 41859 54.7378 149.1438 0003187 311.2464 48.7958 1.70472724 29852

Live tracking and technical data element details for GSAT0207 (GALILEO 15) (NORAD 41859). GSAT0207 (GALILEO 15) can be tracked NOW for your location showing map with azimuth and elevation plus other details from your city location.

Track the satellite on the map from your city or location and see movement details for azimuth, elevation, latitude, longitude, range, height, and movement on the map or in text.







IsCatalogInMostPopularTable: catalog: 41859, numindb: 615
Update: records affected: 1



GetName: 41859 GSAT0207 (GALILEO 15)

Hit Count: updated at: Sun, 26 Sep 2021 01:13:31 GMT